Weather History for Clearfield, PA

Change the Weather History Date:

Sunday, January 12, 2014

  Actual Average (KDUJ) Record (KDUJ)
Temperature  
Mean Temperature 32 °F 23 °F  
Max Temperature 35 °F 31 °F 56 °F (1995)
Min Temperature 28 °F 16 °F -10 °F (1981)
Degree Days  
Heating Degree Days 34 42  
Month to date heating degree days 494  
Since 1 July heating degree days 3156  
Cooling Degree Days 0 0  
Month to date cooling degree days 0  
Year to date cooling degree days 0  
Moisture  
Dew Point 27 °F    
Average Humidity 82    
Maximum Humidity 92    
Minimum Humidity 72    
Precipitation  
Precipitation 0.00 in 0.11 in 0.60 in (2005)
Month to date precipitation 1.26  
Sea Level Pressure  
Sea Level Pressure 29.85 in    
Wind  
Wind Speed 12 mph (WSW)    
Max Wind Speed 17 mph    
Max Gust Speed 29 mph    
Visibility 9 miles    
Events Rain , Snow    
T = Trace of Precipitation, MM = Missing Value Source: NWS Daily Summary

Daily Weather History Graph

Daily Weather History Graph

Search for Another Location

Airport:

Trip Planner

Search our weather history database for the weather conditions in past years. The results will help you decide how hot, cold, wet, or windy it might be!

Date:

Astronomy

Jan. 12, 2014 Rise Set
Actual Time 7:37 AM EST 5:06 PM EST
Civil Twilight 7:07 AM EST 5:37 PM EST
Nautical Twilight 6:33 AM EST 6:11 PM EST
Astronomical Twilight 5:59 AM EST 6:44 PM EST
Moon 2:33 PM EST (1/12) 4:34 AM EST (1/12)
Length of Visible Light 10h 30m
Length of Day
9h 29m
Waxing Gibbous, 89% of the Moon is Illuminated
Jan 12
Waxing Gibbous
Jan 15
Full
Jan 24
Last Quarter
Jan 30
New
Feb 6
First Quarter

Hourly Weather History & Observations

Time (EST) Temp. Windchill Dew Point Humidity Pressure Visibility Wind Dir Wind Speed Gust Speed Precip Events Conditions
12:20 AM 35.1 °F 26.4 °F 32.0 °F 89% 29.58 in 10.0 mi WSW 12.7 mph 24.2 mph 0.00 in Rain Light Rain
12:45 AM 35.1 °F 25.5 °F 30.0 °F 82% 29.59 in 10.0 mi West 15.0 mph 24.2 mph 0.00 in   Overcast
12:54 AM 35.1 °F 25.2 °F 30.0 °F 82% 29.61 in 10.0 mi West 16.1 mph 28.8 mph 0.00 in   Overcast
1:54 AM 34.0 °F 24.6 °F 28.9 °F 82% 29.63 in 10.0 mi West 13.8 mph 26.5 mph 0.00 in   Overcast
2:18 AM 34.0 °F 25.5 °F 28.0 °F 79% 29.61 in 10.0 mi West 11.5 mph 25.3 mph N/A   Overcast
2:49 AM 33.8 °F 24.3 °F 28.4 °F 81% 29.63 in 6.0 mi West 13.8 mph 25.3 mph 0.00 in Snow Light Snow
2:54 AM 33.1 °F 22.2 °F 28.0 °F 82% 29.66 in 6.0 mi West 17.3 mph 25.3 mph 0.00 in Snow Light Snow
3:36 AM 32.0 °F 24.2 °F 28.9 °F 88% 29.64 in 1.8 mi WSW 9.2 mph - 0.00 in Snow Light Snow
3:44 AM 32.0 °F 24.2 °F 30.0 °F 92% 29.64 in 3.0 mi WSW 9.2 mph - 0.00 in Snow Light Snow
3:54 AM 33.1 °F 24.9 °F 28.9 °F 85% 29.68 in 9.0 mi West 10.4 mph 18.4 mph 0.00 in   Overcast
4:54 AM 32.0 °F 22.1 °F 27.0 °F 82% 29.71 in 10.0 mi West 13.8 mph 25.3 mph N/A   Overcast
5:54 AM 32.0 °F 20.8 °F 28.0 °F 85% 29.75 in 10.0 mi West 17.3 mph 27.6 mph N/A   Overcast
6:06 AM 32.0 °F 23.0 °F 27.0 °F 82% 29.73 in 10.0 mi West 11.5 mph 24.2 mph N/A   Overcast
6:42 AM 32.0 °F 24.2 °F 27.0 °F 82% 29.75 in 10.0 mi West 9.2 mph - N/A   Overcast
6:54 AM 32.0 °F 22.1 °F 27.0 °F 82% 29.79 in 10.0 mi West 13.8 mph - N/A   Overcast
7:54 AM 32.0 °F 22.1 °F 27.0 °F 82% 29.81 in 10.0 mi West 13.8 mph 21.9 mph N/A   Overcast
8:54 AM 32.0 °F 22.1 °F 27.0 °F 82% 29.86 in 10.0 mi West 13.8 mph 23.0 mph 0.00 in   Overcast
9:54 AM 32.0 °F 20.8 °F 27.0 °F 82% 29.90 in 10.0 mi West 17.3 mph 24.2 mph N/A   Overcast
10:54 AM 33.1 °F 23.4 °F 26.1 °F 75% 29.92 in 10.0 mi West 13.8 mph 21.9 mph N/A   Overcast
11:54 AM 33.1 °F 23.4 °F 28.0 °F 82% 29.93 in 10.0 mi West 13.8 mph 20.7 mph N/A   Overcast
12:54 PM 32.0 °F 24.8 °F 27.0 °F 82% 29.92 in 10.0 mi West 8.1 mph 19.6 mph N/A   Overcast
1:10 PM 33.1 °F 24.9 °F 27.0 °F 78% 29.88 in 10.0 mi West 10.4 mph 24.2 mph N/A   Overcast
1:22 PM 33.1 °F 24.4 °F 27.0 °F 78% 29.89 in 10.0 mi West 11.5 mph - N/A   Overcast
1:54 PM 33.1 °F 23.0 °F 27.0 °F 78% 29.94 in 10.0 mi West 15.0 mph 21.9 mph N/A   Overcast
2:50 PM 32.0 °F 23.0 °F 26.6 °F 80% 29.93 in 10.0 mi West 11.5 mph 18.4 mph N/A   Overcast
2:54 PM 33.1 °F 26.9 °F 27.0 °F 78% 29.98 in 10.0 mi West 6.9 mph 18.4 mph N/A   Overcast
3:54 PM 33.1 °F 24.9 °F 26.1 °F 75% 30.01 in 10.0 mi WSW 10.4 mph 18.4 mph N/A   Overcast
4:54 PM 33.1 °F 27.7 °F 25.0 °F 72% 30.03 in 10.0 mi WSW 5.8 mph - N/A   Overcast
5:54 PM 32.0 °F 23.6 °F 26.1 °F 79% 30.06 in 10.0 mi WSW 10.4 mph - N/A   Overcast
6:54 PM 32.0 °F 25.6 °F 26.1 °F 79% 30.07 in 10.0 mi SW 6.9 mph - N/A   Overcast
7:33 PM 32.0 °F 25.6 °F 26.1 °F 79% 30.01 in 10.0 mi SW 6.9 mph - N/A   Scattered Clouds
7:54 PM 30.9 °F 26.2 °F 26.1 °F 82% 30.06 in 10.0 mi SW 4.6 mph - N/A   Clear
8:54 PM 30.0 °F 26.5 °F 26.1 °F 85% 30.07 in 10.0 mi SSW 3.5 mph - N/A   Clear
9:54 PM 28.0 °F 24.2 °F 25.0 °F 88% 30.08 in 9.0 mi SSW 3.5 mph - N/A   Clear
10:54 PM 28.9 °F 25.2 °F 26.1 °F 89% 30.06 in 10.0 mi SW 3.5 mph - N/A   Clear
11:54 PM 28.0 °F 24.2 °F 26.1 °F 92% 30.04 in 9.0 mi WSW 3.5 mph - N/A   Clear